Location: Innsbruck
(47.2657°N, 11.3914°E)
Time: 03:04:13
(UTC+01:00)

XW-2F - Pass Details

Date: 15 December 2021
Orbit: 495 x 515 km, 97.5° (Epoch: 16 January)

Event Time Altitude Azimuth Distance (km) Brightness Sun altitude
Rises 17:03:46 0° 150° (SSE) 2,617 ? -6.5°
Reaches altitude 10° 17:05:55 10° 144° (SE) 1,738 ? -6.8°
Maximum altitude 17:09:29 44° 72° (ENE) 730 ? -7.4°
Drops below altitude 10° 17:13:05 10° 360° (N) 1,758 ? -7.9°
Sets 17:15:15 0° 353° (N) 2,651 ? -8.3°
